Temp_Advection
nan nan nan nan nan nan nan nan nan nan nan nan nan nan nan nan nan nan nan nan nan nan nan nan nan nan nan nan nan nan nan nan nan nan nan nan nan nan nan nan nan nan nan nan nan
nan -0 -0 -0 -0 -0 -0 -0 -0 0 0 0 0 -0 -0 -0 -0 -0 -0 -0 -0 0 0 -0 -0 -0 -0 -0 -0 -0 -0 -0 0 -0 -0 -0 0 -0 -0 -1 -0 -0 -0 -0 nan
nan -0 0 0 0 0 -0 -0 -0 -0 -0 -0 -0 -0 -0 -0 -0 -0 -0 0 0 0 -0 -0 -0 -0 -0 0 -0 0 -0 -0 0 0 0 -0 0 0 0 -0 -0 -1 -1 -0 nan
nan 0 0 0 0 0 0 -0 -0 -0 -0 -0 -0 -0 -0 -0 -0 0 -0 0 0 0 -0 -0 -0 -0 -0 0 -0 -0 -0 0 -0 -0 0 0 0 0 0 0 0 -0 -0 -1 nan
nan -0 0 0 0 0 0 0 0 -0 -0 0 -0 -0 -0 -0 0 -0 0 0 0 0 -0 -0 -0 -0 -0 -0 -0 0 -0 -0 0 -0 -0 -0 -0 0 -0 0 0 -0 -0 -1 nan
nan -0 -0 -0 -0 0 0 0 0 0 0 0 0 -0 -0 -0 0 0 0 0 0 -0 -0 -0 -0 -0 -0 -0 0 -0 -0 -0 -0 0 -0 -0 -0 -0 0 -0 -0 -0 -0 -0 nan
nan -0 -0 -0 -0 -0 0 0 0 0 0 0 0 0 -1 0 0 0 0 0 0 0 0 0 0 -0 -0 0 -0 -0 -0 -0 -0 -0 0 0 -0 -0 0 0 -0 -0 -0 -0 nan
nan 0 0 -0 -0 -0 -0 -0 0 0 0 0 0 0 -0 0 0 0 0 -0 0 0 0 0 -0 -0 -0 -0 -0 -0 0 -0 -0 -0 -0 -0 0 -1 -0 0 -0 -0 -0 -0 nan
nan -0 -0 -0 -0 -0 -0 -0 -0 0 0 0 0 -0 0 -0 -0 -0 -0 -0 -0 -0 -0 -0 -0 -0 -0 -1 -0 -0 0 -0 -0 -0 -0 -0 -0 -0 -1 0 0 -0 -0 -0 nan
nan -0 -0 -0 -0 -0 -0 -0 -0 -0 0 -0 -0 -0 -0 -0 -0 -0 -0 0 -0 -1 -1 -1 -1 -0 -0 -0 -0 -0 0 -0 -0 -0 -0 -0 -0 -0 -1 -0 -0 -0 1 -0 nan
nan -0 -0 -0 -0 -0 -0 -0 0 0 -1 -1 0 0 -0 0 -0 -0 -0 -0 -0 -1 -1 -1 -0 -0 -0 -0 0 0 0 -0 -0 -0 0 -0 -0 -0 -0 -1 -1 0 -0 -1 nan
nan -0 -0 -0 -0 -0 -0 -0 -0 -0 -1 -0 0 0 0 0 -0 -1 -0 -1 -1 -1 0 -0 -1 -1 0 0 0 0 0 -0 -0 -0 -0 -0 -0 -0 -0 -0 -0 -0 -1 -0 nan
nan -1 -0 -0 -0 -0 -0 0 0 -0 -1 -0 -0 -1 -0 -1 -0 -0 -0 -1 -0 -0 -0 -1 -0 0 0 0 -0 -0 -0 -0 0 -0 -0 -0 -0 -0 0 0 -0 -0 -0 -0 nan
nan -1 -1 -0 -0 -0 -0 -0 -0 -0 -1 -0 -0 0 -0 -1 -0 0 -0 -0 -0 -0 -0 -0 0 0 -0 -0 -0 -0 -0 0 0 -0 0 0 -0 -0 0 -0 -0 -0 -0 -0 nan
nan -0 -0 -0 -0 -0 -0 -0 0 -0 -1 0 -0 -0 -0 -1 -0 0 -0 -0 -0 -0 0 -0 0 -0 -1 -1 -0 -0 -0 0 0 0 -0 -0 -0 -0 -0 -0 -0 -0 -0 -0 nan
nan -0 -0 -0 -0 -0 -0 -0 -0 -1 -0 0 -0 -1 -1 -1 -0 -1 -0 -0 -0 0 0 -0 -0 -0 -0 -0 0 0 0 0 0 0 0 -0 -0 -0 -0 -0 -0 -0 0 0 nan
nan -0 -0 -0 -0 -0 0 -0 -1 -0 0 0 -0 -0 -0 -0 -0 -1 -1 -0 -0 -0 -0 -0 -0 -0 0 0 0 0 -0 0 0 0 -0 0 -0 -0 -0 0 0 0 0 0 nan
nan -0 -0 0 -0 0 -0 -1 -1 0 -0 0 -0 -0 -0 -0 -0 -0 -0 -0 -1 -1 0 0 -0 -1 -0 -0 -0 -0 -0 0 -0 -1 -0 -0 -0 -0 0 0 0 0 0 0 nan
nan -0 -0 -0 -0 0 -1 -1 -0 0 -0 -0 -0 0 -0 -0 0 0 -0 -1 -0 0 0 -0 -1 -0 -0 -0 0 -0 -1 -1 1 0 -0 -0 -0 -0 0 0 0 -0 -0 -0 nan
nan -0 0 0 0 0 -1 -1 -0 -0 -0 -0 -0 -0 -0 0 0 -0 -0 -0 -0 -0 -0 0 -0 -0 0 0 0 -0 0 1 0 1 -0 -0 -0 -0 0 -0 -0 -0 -0 -0 nan
nan -0 0 0 0 -1 -1 -0 0 0 -0 -0 -0 -0 -0 0 -0 -0 -0 -0 0 0 0 0 -0 0 0 -0 -0 -0 0 -0 -0 0 0 -0 -1 -0 -0 -0 -0 -0 -0 -0 nan
nan -0 0 0 -1 -0 -0 0 0 -0 -0 -0 -0 -0 -0 -0 -0 -0 -0 0 0 0 0 -0 0 0 -0 0 -0 0 -0 -0 0 -0 -0 -0 -0 0 0 0 0 -0 -0 -0 nan
nan -0 0 -0 -1 0 0 0 -0 -0 -0 -0 -0 0 -0 0 -0 -0 -0 -0 -0 0 0 1 0 0 -0 0 -0 0 -0 -0 -0 1 0 -0 -0 0 0 0 0 0 -0 -0 nan
nan -0 0 -0 -0 -0 -0 0 0 0 -0 -0 -0 -0 -0 -0 -0 -0 -0 -0 -0 -0 -0 -1 -0 -0 -0 -0 -0 -0 -0 0 0 0 -0 -0 -0 0 -0 -0 -0 0 0 0 nan
nan -0 -0 -0 0 -0 -0 -0 -0 -0 0 -0 0 -0 -0 -0 -0 -0 -1 -0 1 -0 -1 -1 -0 -0 -0 -0 0 -0 0 0 0 0 -0 -0 -0 -0 0 0 0 0 -0 0 nan
nan -1 -0 -0 -0 0 -0 -1 -0 0 -0 -0 -0 -0 0 -0 -0 -1 -1 -0 -0 -0 -0 0 -0 -0 0 -0 0 0 0 0 -0 -0 -0 0 -0 0 0 1 1 0 -0 -0 nan
nan nan nan nan nan nan nan nan nan nan nan nan nan nan nan nan nan nan nan nan nan nan nan nan nan nan nan nan nan nan nan nan nan nan nan nan nan nan nan nan nan nan nan nan nan
Wind_Speed
11 11 11 11 10 9 7 6 5 5 5 6 7 7 7 8 9 9 9 8 11 14 11 12 9 6 4 2 1 1 3 5 5 4 6 7 5 6 5 15 7 4 6 20 22
12 12 11 11 10 10 8 7 6 5 6 7 7 8 8 7 7 9 7 11 14 13 12 13 11 8 4 2 1 4 1 4 3 3 5 5 6 8 5 13 9 7 12 22 21
14 14 13 12 12 11 11 9 7 6 5 6 7 8 7 5 2 3 8 13 16 15 10 11 9 7 5 2 1 1 4 3 6 4 4 7 6 8 2 8 5 10 20 23 20
15 15 15 14 13 13 12 11 10 8 7 7 7 7 5 1 1 2 7 14 17 15 9 10 10 8 5 1 1 2 4 2 7 7 5 7 6 5 6 4 2 9 21 23 19
16 16 16 15 15 15 14 13 10 9 8 8 8 6 2 4 2 4 8 15 17 15 10 12 11 7 3 1 2 3 4 4 6 9 7 8 6 5 10 2 7 14 21 20 17
16 16 16 16 16 15 14 14 11 8 8 8 7 4 3 7 5 5 7 14 13 12 10 10 7 5 4 2 3 2 4 7 4 7 4 6 3 6 9 8 12 15 19 18 16
17 18 18 18 18 18 16 14 10 7 7 6 4 3 6 2 6 4 9 12 12 10 10 9 3 6 1 3 3 7 7 6 5 5 3 4 7 5 8 12 13 16 17 16 16
17 18 19 20 20 19 17 12 7 6 4 3 1 2 3 7 6 5 11 11 14 9 7 7 4 4 6 4 6 6 6 4 5 7 4 8 5 8 9 13 14 16 16 17 16
18 18 19 20 20 18 14 8 5 6 4 3 1 2 5 8 6 9 10 9 13 10 6 8 4 6 6 11 8 7 5 3 6 8 2 9 2 9 11 12 14 16 17 17 16
20 19 19 20 20 15 12 6 4 5 5 4 5 4 6 9 9 12 11 12 12 13 8 9 9 10 10 10 9 4 7 5 0 8 9 8 9 4 13 14 15 16 16 18 18
20 20 19 19 20 9 9 5 4 3 6 9 1 2 9 8 8 13 14 12 13 16 12 16 11 15 14 14 8 5 4 4 6 4 6 9 9 7 11 16 17 18 19 18 19
20 20 18 17 17 4 8 2 2 3 10 13 17 16 10 6 10 14 17 15 14 14 15 9 16 16 3 4 10 10 9 5 2 1 7 3 9 8 13 16 18 21 21 21 19
20 20 17 15 9 10 6 5 4 8 8 6 11 16 15 15 12 17 23 19 15 15 15 16 5 11 9 13 13 13 13 5 5 2 8 7 13 9 9 16 17 19 20 20 21
19 19 17 14 5 11 1 5 7 5 5 9 7 8 14 14 14 12 24 18 7 13 12 13 12 7 16 18 15 15 12 9 7 7 6 6 2 8 8 12 14 20 23 24 23
17 18 16 13 12 6 7 8 7 1 5 4 7 6 12 18 14 14 22 17 13 11 8 10 11 15 15 15 17 16 12 8 9 11 7 12 7 8 7 9 13 19 23 25 25
17 19 16 15 11 7 3 1 1 6 6 5 7 10 14 21 6 15 19 16 10 10 12 16 5 8 16 11 16 17 10 7 6 7 9 9 7 6 7 2 5 7 19 23 23
17 16 16 12 4 7 5 3 6 6 3 5 4 10 17 13 11 14 17 18 12 12 13 14 15 13 9 12 8 13 16 10 10 9 9 3 6 10 3 2 5 6 9 16 21
17 15 11 5 4 4 7 7 9 2 4 2 2 6 15 12 15 12 16 17 19 14 9 11 14 19 13 17 10 19 20 11 10 9 8 9 6 2 2 2 3 4 5 10 16
17 8 6 10 7 8 11 11 3 4 3 4 6 8 13 14 7 15 15 16 15 16 14 8 13 16 9 12 12 16 16 16 14 2 8 5 7 6 6 6 4 1 1 6 12
14 1 5 7 5 8 9 14 1 2 5 4 8 2 8 16 14 12 17 14 16 16 19 7 8 14 12 8 8 10 18 10 9 13 11 8 8 5 9 8 5 5 4 6 7
4 4 2 5 6 8 8 8 4 6 4 3 2 4 3 4 10 15 11 11 9 12 19 15 10 11 9 14 15 9 9 10 10 5 11 12 10 13 7 8 8 8 5 6 6
3 3 2 3 6 3 6 2 1 7 5 4 5 6 7 4 7 8 14 11 2 8 15 19 11 11 19 5 9 13 19 17 11 14 11 11 4 5 7 11 10 9 5 5 6
7 3 3 1 5 5 3 5 5 6 7 6 9 5 2 6 4 7 8 3 4 8 5 14 11 10 9 8 7 15 15 11 13 12 8 9 7 8 8 10 11 11 7 6 7
5 3 3 3 2 6 3 5 6 5 6 5 6 6 10 13 12 8 5 1 4 8 5 5 18 16 11 13 15 17 15 15 13 10 11 13 14 13 11 13 13 11 8 7 8
3 2 3 1 4 4 5 2 5 6 6 5 5 8 5 8 11 15 16 10 14 3 6 13 16 12 18 9 8 16 16 14 16 15 12 5 14 9 11 15 16 14 11 9 9
5 5 3 8 6 7 5 8 9 6 6 10 8 8 7 10 10 12 9 10 6 2 6 10 13 15 14 12 13 12 10 13 15 15 10 14 11 6 1 9 13 14 14 12 10
4 4 5 2 5 5 5 5 4 1 7 11 11 9 12 12 11 13 14 14 13 13 9 7 12 9 15 12 11 13 14 14 15 13 13 14 13 8 8 11 15 14 10 9 9
Wind_Direction
22 17 13 9 4 358 349 340 338 332 327 324 321 312 294 282 276 260 239 215 199 187 183 177 172 179 187 230 229 297 244 159 148 148 127 142 153 132 97 137 151 94 128 152 152
21 16 12 7 1 355 347 336 324 320 317 318 320 315 302 292 280 262 228 192 191 186 177 177 178 183 209 224 215 283 328 144 111 121 127 159 199 148 163 149 144 131 128 150 155
16 11 6 1 355 349 343 334 319 303 296 303 314 314 308 315 269 181 197 183 184 181 184 191 192 200 243 262 58 34 30 152 156 119 118 119 172 169 178 180 132 159 156 158 163
12 7 2 357 350 343 338 331 318 302 290 296 305 308 302 217 212 170 187 180 181 183 183 186 191 208 244 267 132 213 62 141 135 132 102 137 142 190 156 72 198 145 164 163 170
9 5 360 355 348 340 332 325 317 302 291 297 302 300 272 232 169 155 153 174 184 188 194 196 203 224 269 39 193 217 114 166 179 166 130 155 184 191 214 230 142 147 162 169 169
7 2 358 353 346 338 329 322 315 302 290 294 297 276 203 225 189 164 155 173 180 186 202 205 230 231 280 277 312 45 117 138 162 204 204 223 167 190 191 162 148 156 166 171 172
5 2 357 350 343 336 329 322 312 303 292 289 287 243 221 46 184 168 168 172 183 191 200 195 199 233 228 185 151 171 131 145 148 156 163 191 211 215 161 183 169 167 171 172 175
356 355 353 348 341 335 329 323 316 311 296 271 254 172 222 210 182 164 172 180 186 192 175 193 218 254 250 144 168 207 233 180 145 179 155 217 86 138 164 179 182 175 172 174 181
344 344 345 343 343 337 333 325 308 310 268 246 268 179 166 193 190 186 169 182 181 184 184 173 198 235 193 226 203 204 218 158 154 205 175 218 76 140 181 178 191 184 182 183 181
335 334 337 338 341 337 337 319 299 298 259 256 244 236 205 198 179 172 172 159 165 168 168 193 209 217 220 226 224 197 230 169 105 178 219 226 252 156 182 179 206 193 196 197 194
329 328 331 335 337 331 338 328 300 237 235 240 18 279 145 159 159 174 169 164 163 183 194 200 215 217 211 224 297 298 254 253 103 131 242 244 254 229 198 202 194 208 204 208 204
325 325 329 334 339 349 337 310 53 319 292 256 244 234 215 184 178 181 180 188 192 201 207 179 225 224 259 235 240 245 237 205 125 69 244 251 249 232 202 210 208 206 209 211 202
325 324 326 335 339 349 325 201 320 338 264 252 227 227 209 201 211 187 188 201 202 210 206 228 185 237 208 218 231 235 249 194 300 164 238 270 238 214 217 212 211 213 218 218 208
326 325 326 336 2 333 302 211 316 334 269 153 197 203 186 190 217 204 192 191 203 216 214 236 225 202 221 232 226 241 220 262 265 266 302 221 274 180 196 207 215 219 215 222 219
325 321 324 327 310 321 242 254 307 260 272 121 142 166 170 189 127 183 189 203 225 208 215 213 217 218 228 232 226 246 263 259 248 265 293 196 257 117 159 211 216 220 226 221 218
327 320 321 318 311 278 193 230 200 229 234 146 144 177 171 201 180 148 183 213 239 230 219 260 181 236 220 220 229 232 224 224 246 263 239 214 240 157 142 149 181 214 219 225 217
328 319 313 299 262 235 226 200 221 248 117 144 175 181 193 182 168 175 189 196 205 207 217 210 221 224 230 221 211 207 213 212 217 200 242 91 225 266 142 209 261 271 232 221 217
331 326 311 286 244 225 182 211 235 11 247 94 223 220 209 192 206 190 194 207 212 227 274 211 203 216 195 230 190 209 219 225 206 219 210 145 238 191 175 281 278 280 248 222 208
338 346 349 308 259 199 200 216 238 254 346 287 243 232 200 213 232 204 214 215 202 216 237 211 237 178 205 206 231 192 232 247 281 212 286 205 209 223 202 222 212 155 42 173 193
343 129 358 15 148 165 219 238 243 284 304 256 260 280 234 199 199 205 210 221 228 208 229 233 256 202 179 192 207 257 214 208 232 261 236 229 223 277 174 185 173 169 145 122 159
359 234 344 52 122 201 229 230 205 208 305 292 254 263 255 230 246 215 214 214 216 209 215 230 235 171 173 210 195 191 203 233 275 265 261 249 228 215 186 178 172 136 120 118 147
348 234 261 25 225 248 243 221 228 231 229 258 277 277 274 307 260 237 229 230 243 190 202 211 220 222 206 172 264 245 215 209 224 210 238 282 307 96 219 168 171 144 133 112 130
333 300 296 299 261 203 155 220 260 244 243 253 254 233 267 266 263 241 257 298 267 225 228 188 228 219 213 189 208 226 228 238 233 258 230 240 209 131 168 180 185 166 154 131 121
320 258 169 220 281 289 268 232 241 201 259 271 291 260 258 252 247 264 250 7 315 304 332 256 244 224 226 218 185 205 204 218 230 219 225 219 262 162 183 204 187 178 169 158 136
335 55 336 277 159 301 264 291 248 232 219 230 225 258 278 263 246 247 260 289 282 27 235 226 239 228 245 275 201 200 194 209 227 251 260 241 219 254 201 207 195 183 169 164 157
324 328 302 280 274 265 205 248 261 254 259 256 250 278 264 265 271 313 312 287 277 357 292 232 240 243 236 231 229 219 218 211 230 248 247 254 249 263 220 221 192 190 181 174 170
341 313 292 232 249 249 247 264 278 265 256 264 288 291 273 277 309 295 287 282 277 285 288 275 235 222 221 201 204 223 209 219 227 229 245 244 246 151 190 191 195 193 186 177 180
Height
1527 1525 1524 1522 1520 1519 1517 1516 1515 1514 1513 1512 1511 1510 1509 1508 1508 1508 1509 1512 1512 1512 1514 1516 1518 1520 1520 1520 1519 1518 1511 1515 1514 1524 1516 1518 1518 1522 1525 1527 1530 1533 1532 1537 1542
1527 1525 1524 1522 1520 1518 1516 1515 1514 1513 1512 1511 1509 1509 1508 1507 1507 1506 1508 1509 1510 1512 1515 1517 1519 1519 1518 1517 1517 1514 1509 1511 1511 1513 1513 1519 1520 1522 1524 1527 1529 1534 1536 1540 1544
1528 1525 1523 1521 1519 1517 1515 1514 1512 1511 1510 1509 1508 1507 1506 1506 1506 1505 1505 1507 1509 1511 1515 1517 1518 1518 1516 1515 1515 1514 1511 1514 1514 1515 1516 1518 1522 1523 1521 1523 1525 1530 1536 1540 1544
1528 1526 1523 1521 1519 1517 1515 1512 1510 1509 1508 1507 1506 1505 1505 1505 1501 1503 1504 1506 1508 1511 1514 1516 1518 1516 1513 1510 1514 1511 1514 1514 1515 1518 1520 1520 1522 1523 1526 1525 1527 1530 1535 1539 1544
1528 1526 1523 1520 1518 1515 1513 1510 1509 1507 1506 1506 1505 1504 1504 1506 1504 1503 1503 1505 1508 1511 1514 1516 1516 1514 1510 1511 1512 1510 1513 1516 1517 1518 1519 1523 1523 1527 1524 1528 1529 1531 1536 1539 1543
1528 1525 1522 1520 1517 1514 1511 1508 1507 1506 1505 1504 1504 1503 1504 1504 1502 1502 1503 1505 1509 1512 1514 1515 1514 1514 1512 1512 1509 1512 1513 1515 1517 1517 1519 1519 1520 1524 1523 1528 1530 1533 1535 1539 1542
1527 1524 1521 1517 1514 1511 1508 1506 1505 1504 1503 1503 1502 1502 1504 1503 1502 1502 1504 1507 1509 1512 1514 1515 1515 1515 1513 1510 1512 1511 1512 1514 1515 1518 1518 1520 1520 1519 1523 1527 1529 1532 1535 1538 1541
1526 1523 1520 1516 1512 1509 1506 1504 1503 1502 1502 1502 1502 1502 1502 1501 1501 1502 1504 1506 1508 1510 1513 1514 1515 1515 1512 1511 1510 1508 1506 1513 1514 1516 1518 1519 1516 1517 1524 1526 1527 1530 1534 1537 1540
1525 1522 1519 1515 1511 1507 1504 1503 1502 1501 1501 1501 1502 1503 1499 1499 1501 1503 1505 1506 1508 1510 1512 1512 1514 1512 1512 1506 1503 1505 1511 1507 1513 1515 1514 1517 1512 1516 1522 1525 1524 1528 1532 1535 1538
1523 1520 1517 1514 1510 1506 1504 1502 1501 1501 1501 1501 1502 1506 1499 1498 1500 1502 1504 1506 1508 1510 1513 1514 1511 1506 1504 1501 1506 1499 1506 1505 1506 1511 1514 1513 1511 1514 1518 1523 1524 1525 1528 1532 1535
1521 1517 1515 1512 1508 1505 1504 1502 1504 1502 1499 1494 1495 1495 1496 1498 1499 1501 1503 1506 1507 1508 1505 1509 1507 1504 1497 1497 1493 1501 1501 1502 1502 1506 1510 1508 1507 1506 1513 1517 1521 1523 1528 1528 1531
1518 1515 1512 1510 1506 1504 1503 1504 1502 1503 1497 1492 1492 1493 1495 1496 1497 1499 1503 1504 1503 1501 1501 1508 1505 1493 1497 1500 1502 1501 1502 1502 1504 1506 1508 1503 1504 1500 1505 1510 1514 1518 1520 1524 1526
1515 1512 1510 1508 1505 1504 1502 1504 1502 1501 1497 1484 1486 1487 1491 1495 1492 1493 1499 1498 1499 1496 1500 1497 1491 1494 1501 1501 1503 1500 1499 1497 1506 1505 1503 1504 1499 1495 1498 1505 1510 1513 1516 1518 1520
1512 1509 1507 1506 1506 1503 1504 1501 1500 1500 1489 1475 1480 1481 1486 1489 1489 1490 1494 1497 1496 1494 1494 1494 1491 1499 1500 1499 1497 1500 1492 1498 1503 1507 1508 1499 1508 1491 1491 1498 1503 1506 1510 1513 1517
1510 1507 1505 1503 1503 1503 1502 1500 1500 1501 1492 1474 1476 1479 1480 1484 1480 1487 1492 1494 1491 1492 1496 1492 1493 1496 1497 1494 1492 1496 1488 1495 1497 1502 1501 1498 1502 1486 1490 1494 1493 1498 1501 1504 1509
1507 1504 1502 1500 1500 1499 1499 1499 1501 1496 1488 1469 1472 1474 1478 1477 1479 1485 1490 1492 1491 1490 1492 1487 1490 1488 1486 1487 1489 1491 1495 1494 1495 1496 1510 1490 1495 1483 1485 1487 1487 1489 1493 1498 1502
1503 1501 1498 1497 1499 1497 1498 1500 1493 1486 1469 1471 1466 1468 1469 1472 1475 1477 1482 1486 1487 1497 1493 1487 1486 1486 1487 1488 1488 1489 1493 1504 1511 1507 1506 1486 1496 1480 1480 1484 1485 1486 1488 1492 1496
1500 1497 1494 1493 1493 1494 1497 1496 1492 1472 1470 1470 1469 1467 1468 1463 1469 1472 1475 1479 1478 1478 1477 1486 1491 1479 1479 1480 1482 1487 1479 1485 1510 1497 1490 1489 1501 1481 1479 1483 1484 1486 1486 1487 1491
1497 1494 1493 1491 1490 1492 1497 1488 1474 1471 1476 1474 1468 1467 1465 1461 1465 1468 1470 1469 1468 1474 1483 1479 1481 1465 1470 1472 1474 1478 1484 1463 1473 1476 1487 1477 1482 1476 1478 1480 1481 1483 1484 1485 1489
1495 1495 1494 1489 1488 1492 1490 1481 1475 1481 1479 1475 1472 1469 1462 1459 1467 1465 1463 1460 1463 1466 1469 1469 1485 1465 1468 1474 1475 1471 1468 1485 1480 1504 1507 1485 1490 1481 1478 1478 1480 1482 1483 1485 1488
1494 1494 1494 1491 1491 1492 1481 1474 1476 1482 1482 1478 1474 1472 1467 1465 1462 1457 1458 1457 1458 1459 1465 1467 1472 1466 1469 1471 1466 1475 1474 1474 1468 1472 1490 1493 1480 1463 1470 1474 1477 1480 1484 1485 1488
1495 1488 1492 1492 1490 1486 1479 1481 1486 1479 1481 1478 1478 1475 1473 1471 1467 1461 1460 1456 1459 1460 1464 1463 1465 1468 1466 1456 1459 1455 1462 1464 1480 1486 1479 1477 1472 1459 1466 1470 1475 1481 1485 1488 1489
1497 1494 1492 1491 1480 1478 1483 1482 1483 1480 1478 1477 1475 1475 1475 1472 1476 1465 1460 1459 1463 1462 1459 1459 1467 1471 1471 1466 1465 1463 1459 1455 1456 1460 1472 1484 1473 1461 1468 1474 1478 1480 1486 1488 1489
1499 1488 1490 1491 1489 1485 1483 1479 1479 1483 1480 1480 1477 1478 1474 1473 1470 1470 1463 1462 1464 1464 1464 1462 1454 1458 1457 1454 1447 1461 1456 1457 1459 1468 1469 1468 1465 1462 1467 1471 1474 1481 1485 1488 1490
1501 1494 1497 1482 1486 1488 1487 1484 1480 1478 1480 1480 1476 1476 1474 1474 1468 1468 1463 1462 1463 1463 1463 1459 1458 1447 1446 1446 1443 1449 1454 1457 1460 1456 1464 1455 1460 1456 1458 1463 1469 1478 1484 1487 1489
1502 1501 1497 1493 1493 1490 1486 1479 1479 1476 1482 1476 1478 1472 1477 1476 1471 1469 1468 1469 1465 1463 1459 1454 1457 1446 1451 1447 1447 1449 1448 1453 1456 1454 1456 1456 1459 1453 1460 1462 1468 1476 1481 1484 1488
1503 1502 1502 1490 1487 1487 1479 1480 1481 1485 1481 1481 1480 1480 1478 1474 1474 1475 1474 1472 1469 1469 1468 1462 1452 1456 1456 1449 1450 1458 1448 1449 1450 1451 1456 1460 1454 1455 1464 1467 1470 1473 1478 1482 1486